| time (UTC) | temp F | wind direction | speed knots | gust knots | rain 1hr in | rain 24hr in | rain mn in | humidity % | barometer mb |
| 20260505224118 | 87 | 200 | 0.9 | 6.1 | 0.00 | 0.00 | 0.00 | 69 | 1003.3 |
| 20260505223617 | 88 | 62 | 0.9 | 6.1 | 0.00 | 0.00 | 0.00 | 66 | 1003.2 |
| 20260505223113 | 89 | 84 | 0.9 | 4.3 | 0.00 | 0.00 | 0.00 | 64 | 1003.1 |
| 20260505222614 | 89 | 70 | 0.9 | 4.3 | 0.00 | 0.00 | 0.00 | 64 | 1003.0 |
| 20260505222113 | 89 | 218 | 0.0 | 0.9 | 0.00 | 0.00 | 0.00 | 61 | 1003.0 |
| 20260505221615 | 89 | 281 | 0.0 | 2.6 | 0.00 | 0.00 | 0.00 | 60 | 1003.1 |
| 20260505221113 | 89 | 263 | 0.9 | 3.5 | 0.00 | 0.00 | 0.00 | 59 | 1003.1 |
| 20260505220608 | 89 | 238 | 0.9 | 3.5 | 0.00 | 0.00 | 0.00 | 61 | 1003.1 |
| 20260505215558 | 89 | 251 | 0.0 | 5.2 | 0.00 | 0.00 | 0.00 | 59 | 1003.2 |
| 20260505215109 | 89 | 221 | 0.0 | 2.6 | 0.00 | 0.00 | 0.00 | 59 | 1003.2 |
| 20260505214557 | 89 | 302 | 0.9 | 2.6 | 0.00 | 0.00 | 0.00 | 60 | 1003.2 |
| 20260505214058 | 89 | 279 | 0.0 | 3.5 | 0.00 | 0.00 | 0.00 | 60 | 1003.4 |
| 20260505213700 | 89 | 253 | 0.0 | 3.5 | 0.00 | 0.00 | 0.00 | 59 | 1003.4 |
| 20260505212555 | 89 | 269 | 0.0 | 2.6 | 0.00 | 0.00 | 0.00 | 60 | 1003.5 |
| 20260505212056 | 88 | 188 | 0.0 | 1.7 | 0.00 | 0.00 | 0.00 | 61 | 1003.5 |
| 20260505211555 | 88 | 227 | 0.9 | 3.5 | 0.00 | 0.00 | 0.00 | 60 | 1003.6 |
| 20260505211412 | 89 | 229 | 0.9 | 3.5 | 0.00 | 0.00 | 0.00 | 61 | 1003.6 |
| 20260505210700 | 89 | 230 | 0.9 | 3.5 | 0.00 | 0.00 | 0.00 | 61 | 1003.5 |
| 20260505205554 | 88 | 285 | 0.9 | 3.5 | 0.00 | 0.00 | 0.00 | 60 | 1003.7 |
| 20260505205052 | 88 | 252 | 0.9 | 5.2 | 0.00 | 0.00 | 0.00 | 61 | 1003.7 |
| 20260505204551 | 88 | 250 | 0.9 | 5.2 | 0.00 | 0.00 | 0.00 | 62 | 1003.9 |
| 20260505204400 | 88 | 252 | 0.9 | 2.6 | 0.00 | 0.00 | 0.00 | 62 | 1004.1 |
| 20260505203549 | 88 | 248 | 0.9 | 4.3 | 0.00 | 0.00 | 0.00 | 64 | 1004.0 |
| 20260505203049 | 87 | 257 | 0.9 | 4.3 | 0.00 | 0.00 | 0.00 | 63 | 1004.0 |
| 20260505202549 | 87 | 248 | 0.9 | 4.3 | 0.00 | 0.00 | 0.00 | 66 | 1003.9 |
| 20260505202358 | 87 | 250 | 0.9 | 3.5 | 0.00 | 0.00 | 0.00 | 66 | 1004.1 |
| 20260505201554 | 87 | 272 | 0.9 | 3.5 | 0.00 | 0.00 | 0.00 | 65 | 1004.0 |
| 20260505201045 | 87 | 249 | 0.9 | 2.6 | 0.00 | 0.00 | 0.00 | 66 | 1004.1 |
| 20260505200547 | 87 | 247 | 0.9 | 4.3 | 0.00 | 0.00 | 0.00 | 65 | 1004.1 |
| 20260505200046 | 87 | 269 | 0.9 | 4.3 | 0.00 | 0.00 | 0.00 | 66 | 1004.2 |
| 20260505195546 | 87 | 244 | 0.9 | 3.5 | 0.00 | 0.00 | 0.00 | 65 | 1004.1 |
| 20260505195356 | 87 | 270 | 0.9 | 3.5 | 0.00 | 0.00 | 0.00 | 67 | 1004.2 |
| 20260505194546 | 87 | 274 | 0.9 | 3.5 | 0.00 | 0.00 | 0.00 | 68 | 1004.1 |
| 20260505194049 | 86 | 214 | 0.9 | 5.2 | 0.00 | 0.00 | 0.00 | 68 | 1004.4 |
| 20260505193545 | 86 | 210 | 0.9 | 5.2 | 0.00 | 0.00 | 0.00 | 68 | 1004.2 |
| 20260505193045 | 86 | 266 | 0.9 | 5.2 | 0.00 | 0.00 | 0.00 | 69 | 1004.2 |
| 20260505192855 | 86 | 250 | 0.9 | 5.2 | 0.00 | 0.00 | 0.00 | 68 | 1004.3 |
| 20260505192045 | 85 | 176 | 0.9 | 3.5 | 0.00 | 0.00 | 0.00 | 69 | 1004.2 |
| 20260505191902 | 86 | 246 | 0.9 | 4.3 | 0.00 | 0.00 | 0.00 | 68 | 1004.3 |
| 20260505191407 | 86 | 243 | 0.9 | 6.1 | 0.00 | 0.00 | 0.00 | 68 | 1004.3 |
| 20260505190907 | 85 | 226 | 0.9 | 6.1 | 0.00 | 0.00 | 0.00 | 68 | 1004.4 |
| 20260505190045 | 85 | 238 | 0.9 | 3.5 | 0.00 | 0.00 | 0.00 | 69 | 1004.4 |
| 20260505185546 | 85 | 226 | 0.9 | 3.5 | 0.00 | 0.00 | 0.00 | 70 | 1004.4 |
| 20260505185045 | 84 | 265 | 0.9 | 4.3 | 0.00 | 0.00 | 0.00 | 70 | 1004.5 |
| 20260505184858 | 84 | 262 | 0.9 | 4.3 | 0.00 | 0.00 | 0.00 | 70 | 1004.5 |
| 20260505184042 | 84 | 238 | 0.9 | 2.6 | 0.00 | 0.00 | 0.00 | 69 | 1004.5 |
| 20260505183542 | 84 | 270 | 0.9 | 5.2 | 0.00 | 0.00 | 0.00 | 70 | 1004.5 |
| 20260505183041 | 84 | 245 | 0.9 | 5.2 | 0.00 | 0.00 | 0.00 | 70 | 1004.5 |
| 20260505182543 | 84 | 219 | 0.9 | 3.5 | 0.00 | 0.00 | 0.00 | 70 | 1004.5 |
| 20260505182041 | 84 | 274 | 0.9 | 3.5 | 0.00 | 0.00 | 0.00 | 69 | 1004.5 |
| 20260505181541 | 84 | 250 | 0.9 | 4.3 | 0.00 | 0.00 | 0.00 | 69 | 1004.6 |
| 20260505181042 | 84 | 271 | 0.9 | 5.2 | 0.00 | 0.00 | 0.00 | 69 | 1004.6 |
| 20260505180542 | 84 | 265 | 0.9 | 5.2 | 0.00 | 0.00 | 0.00 | 69 | 1004.6 |
| 20260505180039 | 84 | 155 | 1.7 | 7.8 | 0.00 | 0.00 | 0.00 | 69 | 1004.6 |
| 20260505175830 | 84 | 166 | 1.7 | 7.8 | 0.00 | 0.00 | 0.00 | 69 | 1004.6 |
| 20260505175336 | 84 | 242 | 0.9 | 5.2 | 0.00 | 0.00 | 0.00 | 69 | 1004.6 |
| 20260505174522 | 84 | 144 | 0.9 | 5.2 | 0.00 | 0.00 | 0.00 | 69 | 1004.7 |
| 20260505174024 | 84 | 256 | 0.9 | 5.2 | 0.00 | 0.00 | 0.00 | 70 | 1004.8 |
| 20260505173522 | 84 | 250 | 0.9 | 3.5 | 0.00 | 0.00 | 0.00 | 69 | 1004.8 |
| 20260505173022 | 84 | 226 | 0.9 | 3.5 | 0.00 | 0.00 | 0.00 | 69 | 1004.8 |
| 20260505172521 | 83 | 276 | 0.9 | 6.1 | 0.00 | 0.00 | 0.00 | 70 | 1004.8 |
| 20260505172021 | 83 | 274 | 0.9 | 6.1 | 0.00 | 0.00 | 0.00 | 71 | 1004.8 |
| 20260505171522 | 82 | 239 | 0.9 | 3.5 | 0.00 | 0.00 | 0.00 | 71 | 1004.9 |
| 20260505171017 | 82 | 245 | 1.7 | 7.0 | 0.00 | 0.00 | 0.00 | 71 | 1004.9 |
| 20260505170518 | 82 | 156 | 1.7 | 7.0 | 0.00 | 0.00 | 0.00 | 71 | 1004.9 |
| 20260505170118 | 82 | 222 | 1.7 | 4.3 | 0.00 | 0.00 | 0.00 | 71 | 1004.9 |
| 20260505165517 | 82 | 213 | 0.9 | 3.5 | 0.00 | 0.00 | 0.00 | 71 | 1004.9 |
| 20260505165331 | 82 | 246 | 0.9 | 4.3 | 0.00 | 0.00 | 0.00 | 72 | 1004.8 |
| 20260505164519 | 81 | 251 | 1.7 | 4.3 | 0.00 | 0.00 | 0.00 | 72 | 1004.8 |
| 20260505164018 | 82 | 243 | 0.9 | 3.5 | 0.00 | 0.00 | 0.00 | 71 | 1004.9 |
| 20260505163517 | 82 | 255 | 0.9 | 6.1 | 0.00 | 0.00 | 0.00 | 72 | 1004.8 |
| 20260505163014 | 82 | 255 | 0.9 | 6.1 | 0.00 | 0.00 | 0.00 | 71 | 1004.7 |
| 20260505162515 | 82 | 34 | 1.7 | 6.1 | 0.00 | 0.00 | 0.00 | 71 | 1004.8 |
| 20260505162016 | 82 | 210 | 1.7 | 6.1 | 0.00 | 0.00 | 0.00 | 70 | 1004.8 |
| 20260505161512 | 82 | 229 | 0.9 | 6.1 | 0.00 | 0.00 | 0.00 | 72 | 1004.6 |
| 20260505161013 | 81 | 277 | 0.9 | 6.1 | 0.00 | 0.00 | 0.00 | 73 | 1004.5 |
| 20260505160511 | 81 | 249 | 1.7 | 5.2 | 0.00 | 0.00 | 0.00 | 74 | 1004.5 |
| 20260505152459 | 79 | 179 | 1.7 | 6.1 | 0.00 | 0.00 | 0.00 | 76 | 1004.6 |
| 20260505152000 | 79 | 258 | 0.9 | 4.3 | 0.00 | 0.00 | 0.00 | 77 | 1004.7 |
| 20260505151458 | 78 | 231 | 0.9 | 3.5 | 0.00 | 0.00 | 0.00 | 78 | 1004.7 |
| 20260505150958 | 78 | 256 | 0.9 | 3.5 | 0.00 | 0.00 | 0.00 | 79 | 1004.7 |
| 20260505150455 | 77 | 288 | 0.9 | 3.5 | 0.00 | 0.00 | 0.00 | 79 | 1004.8 |
| 20260505140447 | 74 | 260 | 0.9 | 3.5 | 0.00 | 0.00 | 0.00 | 83 | 1004.9 |
| 20260505124920 | 72 | 263 | 0.0 | 2.6 | 0.00 | 0.00 | 0.00 | 85 | 1004.5 |
| 20260505124420 | 72 | 277 | 0.9 | 2.6 | 0.00 | 0.00 | 0.00 | 85 | 1004.5 |
| 20260505123922 | 72 | 294 | 0.9 | 3.5 | 0.00 | 0.00 | 0.00 | 85 | 1004.3 |
| 20260505123440 | 72 | 245 | 0.9 | 3.5 | 0.00 | 0.00 | 0.00 | 85 | 1004.1 |
| 20260505123229 | 72 | 96 | 0.9 | 3.5 | 0.00 | 0.00 | 0.00 | 85 | 1004.0 |
| 20260505122419 | 72 | 251 | 0.9 | 3.5 | 0.00 | 0.00 | 0.00 | 85 | 1004.0 |
| 20260505121920 | 72 | 277 | 0.9 | 3.5 | 0.00 | 0.00 | 0.00 | 86 | 1004.1 |
| 20260505121739 | 72 | 272 | 0.9 | 3.5 | 0.00 | 0.00 | 0.00 | 86 | 1004.2 |
| 20260505120914 | 72 | 264 | 0.9 | 3.5 | 0.00 | 0.00 | 0.00 | 86 | 1004.0 |
| 20260505120415 | 72 | 256 | 0.0 | 2.6 | 0.00 | 0.00 | 0.00 | 85 | 1004.0 |
| 20260505115915 | 72 | 266 | 0.9 | 6.1 | 0.00 | 0.00 | 0.00 | 85 | 1004.0 |
| 20260505115408 | 72 | 283 | 0.9 | 6.1 | 0.00 | 0.00 | 0.00 | 85 | 1004.0 |
| 20260505114904 | 71 | 257 | 0.9 | 4.3 | 0.00 | 0.00 | 0.00 | 85 | 1003.9 |
| 20260505114358 | 71 | 251 | 0.9 | 6.1 | 0.00 | 0.00 | 0.00 | 85 | 1004.0 |
| 20260505113850 | 71 | 255 | 0.9 | 6.1 | 0.00 | 0.00 | 0.00 | 85 | 1003.9 |
| 20260505113345 | 71 | 258 | 0.9 | 6.1 | 0.00 | 0.00 | 0.00 | 86 | 1003.8 |
| 20260505112839 | 71 | 287 | 0.9 | 6.1 | 0.00 | 0.00 | 0.00 | 86 | 1003.7 |
| 20260505112333 | 71 | 272 | 0.9 | 6.1 | 0.00 | 0.00 | 0.00 | 86 | 1003.8 |
| 20260505111827 | 71 | 248 | 0.9 | 2.6 | 0.00 | 0.00 | 0.00 | 86 | 1003.7 |
| 20260505111321 | 71 | 281 | 0.9 | 2.6 | 0.00 | 0.00 | 0.00 | 86 | 1003.6 |
| 20260505110815 | 71 | 243 | 0.9 | 5.2 | 0.00 | 0.00 | 0.00 | 86 | 1003.5 |
| 20260505110622 | 71 | 264 | 0.9 | 5.2 | 0.00 | 0.00 | 0.00 | 85 | 1003.4 |
| 20260505102222 | 72 | 273 | 0.9 | 5.2 | 0.00 | 0.00 | 0.00 | 85 | 1003.8 |
| 20260505101714 | 72 | 136 | 0.9 | 5.2 | 0.00 | 0.00 | 0.00 | 85 | 1003.8 |
| 20260505101530 | 72 | 205 | 0.9 | 4.3 | 0.00 | 0.00 | 0.00 | 85 | 1003.8 |
| 20260505101525 | 72 | 249 | 0.9 | 6.1 | 0.00 | 0.00 | 0.00 | 84 | 1003.8 |
| 20260505095653 | 72 | 271 | 0.9 | 6.1 | 0.00 | 0.00 | 0.00 | 84 | 1003.9 |
| 20260505095145 | 72 | 248 | 0.9 | 5.2 | 0.00 | 0.00 | 0.00 | 85 | 1003.9 |
| 20260505094639 | 72 | 268 | 0.9 | 5.2 | 0.00 | 0.00 | 0.00 | 85 | 1003.9 |
| 20260505094447 | 72 | 15 | 0.9 | 3.5 | 0.00 | 0.00 | 0.00 | 85 | 1004.0 |
| 20260505093627 | 72 | 265 | 0.9 | 2.6 | 0.00 | 0.00 | 0.00 | 85 | 1004.1 |
| 20260505093121 | 72 | 276 | 0.9 | 5.2 | 0.00 | 0.00 | 0.00 | 85 | 1004.1 |
| 20260505092615 | 72 | 250 | 0.9 | 5.2 | 0.00 | 0.00 | 0.00 | 85 | 1004.1 |
| 20260505092109 | 72 | 216 | 0.9 | 2.6 | 0.00 | 0.00 | 0.00 | 85 | 1004.1 |
| 20260505091605 | 72 | 264 | 0.9 | 3.5 | 0.00 | 0.00 | 0.00 | 85 | 1004.2 |
| 20260505091056 | 71 | 254 | 0.9 | 6.1 | 0.00 | 0.00 | 0.00 | 85 | 1004.3 |
| 20260505090552 | 71 | 252 | 0.9 | 7.8 | 0.00 | 0.00 | 0.00 | 85 | 1004.2 |
| 20260505090046 | 71 | 236 | 0.9 | 7.8 | 0.00 | 0.00 | 0.00 | 85 | 1004.0 |
| 20260505085542 | 71 | 254 | 1.7 | 4.3 | 0.00 | 0.00 | 0.00 | 85 | 1004.1 |
| 20260505085034 | 71 | 242 | 0.9 | 4.3 | 0.00 | 0.00 | 0.00 | 85 | 1004.1 |
| 20260505084528 | 71 | 250 | 0.9 | 4.3 | 0.00 | 0.00 | 0.00 | 85 | 1004.2 |
| 20260505084021 | 71 | 283 | 0.9 | 4.3 | 0.00 | 0.00 | 0.00 | 85 | 1004.1 |
| 20260505083514 | 71 | 230 | 0.9 | 4.3 | 0.00 | 0.00 | 0.00 | 85 | 1004.0 |
| 20260505083010 | 71 | 252 | 0.9 | 6.1 | 0.00 | 0.00 | 0.00 | 85 | 1004.1 |
| 20260505082504 | 71 | 245 | 0.9 | 6.1 | 0.00 | 0.00 | 0.00 | 85 | 1004.2 |
| 20260505081957 | 71 | 214 | 0.9 | 4.3 | 0.00 | 0.00 | 0.00 | 85 | 1004.2 |
| 20260505081802 | 71 | 249 | 0.9 | 4.3 | 0.00 | 0.00 | 0.00 | 84 | 1004.1 |
| 20260505080945 | 71 | 271 | 0.9 | 4.3 | 0.00 | 0.00 | 0.00 | 84 | 1004.2 |
| 20260505080441 | 71 | 254 | 0.9 | 4.3 | 0.00 | 0.00 | 0.00 | 84 | 1004.2 |
| 20260505075933 | 72 | 292 | 0.9 | 4.3 | 0.00 | 0.00 | 0.00 | 84 | 1004.3 |
| 20260505075427 | 72 | 226 | 0.9 | 4.3 | 0.00 | 0.00 | 0.00 | 84 | 1004.4 |
| 20260505074921 | 72 | 238 | 0.9 | 6.1 | 0.00 | 0.00 | 0.00 | 83 | 1004.4 |
| 20260505074414 | 72 | 292 | 0.9 | 6.1 | 0.00 | 0.00 | 0.00 | 83 | 1004.6 |
| 20260505073919 | 72 | 265 | 0.9 | 7.0 | 0.00 | 0.00 | 0.00 | 83 | 1004.7 |
| 20260505073413 | 72 | 239 | 0.9 | 7.0 | 0.00 | 0.00 | 0.00 | 83 | 1004.9 |
| 20260505072913 | 72 | 268 | 1.7 | 8.7 | 0.00 | 0.00 | 0.00 | 83 | 1004.9 |
| 20260505072410 | 72 | 268 | 1.7 | 8.7 | 0.00 | 0.00 | 0.00 | 82 | 1005.0 |
| 20260505071911 | 72 | 301 | 0.9 | 6.1 | 0.00 | 0.00 | 0.00 | 82 | 1005.1 |
| 20260505071411 | 72 | 271 | 1.7 | 7.0 | 0.00 | 0.00 | 0.00 | 82 | 1005.0 |
| 20260505070913 | 72 | 272 | 0.9 | 7.0 | 0.00 | 0.00 | 0.00 | 82 | 1005.1 |
| 20260505070410 | 72 | 268 | 0.9 | 6.1 | 0.00 | 0.00 | 0.00 | 82 | 1005.1 |
| 20260505065911 | 72 | 157 | 0.9 | 4.3 | 0.00 | 0.00 | 0.00 | 82 | 1005.1 |
| 20260505065409 | 72 | 227 | 0.9 | 4.3 | 0.00 | 0.00 | 0.00 | 82 | 1005.2 |
| 20260505064908 | 72 | 257 | 0.9 | 7.0 | 0.00 | 0.00 | 0.00 | 81 | 1005.3 |
| 20260505064408 | 73 | 244 | 0.9 | 7.0 | 0.00 | 0.00 | 0.00 | 81 | 1005.3 |
| 20260505064222 | 73 | 245 | 0.9 | 8.7 | 0.00 | 0.00 | 0.00 | 81 | 1005.4 |
| 20260505063407 | 73 | 243 | 0.9 | 8.7 | 0.00 | 0.00 | 0.00 | 81 | 1005.4 |
| 20260505063227 | 72 | 278 | 0.9 | 5.2 | 0.00 | 0.00 | 0.00 | 81 | 1005.3 |
| 20260505062407 | 73 | 158 | 0.9 | 4.3 | 0.00 | 0.00 | 0.00 | 81 | 1005.3 |
| 20260505061906 | 72 | 281 | 0.9 | 5.2 | 0.00 | 0.00 | 0.00 | 80 | 1005.3 |
| 20260505061401 | 72 | 268 | 0.9 | 5.2 | 0.00 | 0.00 | 0.00 | 80 | 1005.3 |
| 20260505060855 | 72 | 282 | 0.9 | 5.2 | 0.00 | 0.00 | 0.00 | 80 | 1005.3 |
| 20260505060349 | 73 | 140 | 0.9 | 5.2 | 0.00 | 0.00 | 0.00 | 80 | 1005.4 |
| 20260505060159 | 73 | 130 | 0.9 | 6.1 | 0.00 | 0.00 | 0.00 | 80 | 1005.5 |
| 20260505055650 | 73 | 343 | 0.9 | 6.1 | 0.00 | 0.00 | 0.00 | 80 | 1005.5 |
| 20260505054831 | 73 | 8 | 0.9 | 5.2 | 0.00 | 0.00 | 0.00 | 79 | 1005.6 |
| 20260505054326 | 73 | 215 | 0.9 | 5.2 | 0.00 | 0.00 | 0.00 | 79 | 1005.6 |
| 20260505053819 | 73 | 275 | 0.9 | 3.5 | 0.00 | 0.00 | 0.00 | 79 | 1005.5 |
| 20260505053313 | 73 | 248 | 0.9 | 3.5 | 0.00 | 0.00 | 0.00 | 79 | 1005.7 |
| 20260505052807 | 73 | 336 | 0.9 | 6.1 | 0.00 | 0.00 | 0.00 | 79 | 1005.8 |
| 20260505052304 | 73 | 289 | 0.9 | 6.1 | 0.00 | 0.00 | 0.00 | 78 | 1005.7 |
| 20260505051755 | 73 | 336 | 0.9 | 6.1 | 0.00 | 0.00 | 0.00 | 78 | 1005.7 |
| 20260505051249 | 73 | 254 | 0.9 | 6.1 | 0.00 | 0.00 | 0.00 | 78 | 1005.8 |
| 20260505050744 | 73 | 248 | 0.9 | 4.3 | 0.00 | 0.00 | 0.00 | 77 | 1005.7 |
| 20260505050239 | 73 | 61 | 0.9 | 4.3 | 0.00 | 0.00 | 0.00 | 77 | 1005.8 |
| 20260505041642 | 74 | 243 | 0.9 | 7.0 | 0.00 | 0.00 | 0.00 | 76 | 1006.1 |
| 20260505041137 | 74 | 284 | 0.9 | 7.0 | 0.00 | 0.00 | 0.00 | 75 | 1006.1 |
| 20260505040629 | 74 | 264 | 0.9 | 4.3 | 0.00 | 0.00 | 0.00 | 75 | 1006.1 |
| 20260505040125 | 74 | 319 | 0.9 | 5.2 | 0.00 | 0.00 | 0.00 | 75 | 1006.2 |
| 20260505035933 | 74 | 120 | 0.9 | 5.2 | 0.00 | 0.00 | 0.00 | 75 | 1006.1 |
| 20260505035111 | 74 | 140 | 0.9 | 5.2 | 0.00 | 0.00 | 0.00 | 74 | 1005.9 |
| 20260505034606 | 74 | 275 | 0.9 | 5.2 | 0.00 | 0.00 | 0.00 | 74 | 1006.0 |
| 20260505034421 | 74 | 206 | 0.9 | 4.3 | 0.00 | 0.00 | 0.00 | 74 | 1006.0 |
| 20260505033554 | 74 | 115 | 0.9 | 5.2 | 0.00 | 0.00 | 0.00 | 74 | 1006.1 |
| 20260505033048 | 74 | 235 | 0.9 | 5.2 | 0.00 | 0.00 | 0.00 | 74 | 1006.2 |
| 20260505032547 | 74 | 252 | 0.9 | 3.5 | 0.00 | 0.00 | 0.00 | 74 | 1006.1 |
| 20260505032039 | 74 | 302 | 0.9 | 3.5 | 0.00 | 0.00 | 0.00 | 74 | 1006.2 |
| 20260505031529 | 74 | 281 | 0.9 | 2.6 | 0.00 | 0.00 | 0.00 | 74 | 1006.2 |
| 20260505031024 | 74 | 354 | 0.9 | 5.2 | 0.00 | 0.00 | 0.00 | 73 | 1006.2 |
| 20260505030517 | 74 | 243 | 0.9 | 3.5 | 0.00 | 0.00 | 0.00 | 73 | 1006.1 |
| 20260505030016 | 75 | 13 | 0.9 | 3.5 | 0.00 | 0.00 | 0.00 | 73 | 1006.2 |
| 20260505025507 | 75 | 269 | 0.9 | 3.5 | 0.00 | 0.00 | 0.00 | 73 | 1006.3 |
| 20260505025000 | 75 | 266 | 0.9 | 4.3 | 0.00 | 0.00 | 0.00 | 73 | 1006.1 |
| 20260505024453 | 75 | 155 | 0.9 | 4.3 | 0.00 | 0.00 | 0.00 | 72 | 1006.1 |
| 20260505024304 | 75 | 302 | 0.9 | 4.3 | 0.00 | 0.00 | 0.00 | 72 | 1006.1 |
| 20260505023759 | 75 | 274 | 0.9 | 3.5 | 0.00 | 0.00 | 0.00 | 72 | 1006.0 |
| 20260505022935 | 75 | 15 | 0.9 | 4.3 | 0.00 | 0.00 | 0.00 | 72 | 1005.9 |
| 20260505022430 | 75 | 346 | 0.9 | 5.2 | 0.00 | 0.00 | 0.00 | 72 | 1006.0 |
| 20260505021924 | 75 | 9 | 0.9 | 5.2 | 0.00 | 0.00 | 0.00 | 71 | 1006.0 |
| 20260505021417 | 76 | 115 | 0.9 | 3.5 | 0.00 | 0.00 | 0.00 | 71 | 1006.0 |
| 20260505021229 | 76 | 283 | 0.9 | 6.1 | 0.00 | 0.00 | 0.00 | 71 | 1006.0 |
| 20260505020725 | 76 | 342 | 0.9 | 6.1 | 0.00 | 0.00 | 0.00 | 71 | 1005.9 |
| 20260505015859 | 76 | 262 | 0.9 | 3.5 | 0.00 | 0.00 | 0.00 | 70 | 1005.9 |
| 20260505015710 | 76 | 128 | 0.9 | 5.2 | 0.00 | 0.00 | 0.00 | 70 | 1006.1 |
| 20260505015204 | 76 | 30 | 0.9 | 5.2 | 0.00 | 0.00 | 0.00 | 70 | 1005.9 |
| 20260505014343 | 76 | 41 | 0.9 | 4.3 | 0.00 | 0.00 | 0.00 | 70 | 1006.0 |
| 20260505013836 | 76 | 306 | 0.9 | 3.5 | 0.00 | 0.00 | 0.00 | 70 | 1006.0 |
| 20260505013330 | 76 | 252 | 0.9 | 3.5 | 0.00 | 0.00 | 0.00 | 69 | 1006.0 |
| 20260505013155 | 76 | 58 | 0.9 | 4.3 | 0.00 | 0.00 | 0.00 | 69 | 1006.0 |
| 20260505012318 | 76 | 256 | 0.9 | 4.3 | 0.00 | 0.00 | 0.00 | 69 | 1006.0 |
| 20260505011814 | 77 | 257 | 0.9 | 6.1 | 0.00 | 0.00 | 0.00 | 68 | 1005.9 |
| 20260505011615 | 77 | 346 | 0.9 | 6.1 | 0.00 | 0.00 | 0.00 | 68 | 1005.9 |
| 20260505010903 | 77 | 165 | 0.9 | 5.2 | 0.00 | 0.00 | 0.00 | 68 | 1005.9 |
| 20260505005748 | 77 | 259 | 1.7 | 6.1 | 0.00 | 0.00 | 0.00 | 67 | 1005.6 |
| 20260505005243 | 77 | 288 | 0.9 | 6.1 | 0.00 | 0.00 | 0.00 | 67 | 1005.9 |
| 20260505004736 | 77 | 214 | 0.9 | 5.2 | 0.00 | 0.00 | 0.00 | 67 | 1005.9 |
| 20260505004232 | 78 | 290 | 0.9 | 4.3 | 0.00 | 0.00 | 0.00 | 67 | 1005.9 |
| 20260505003724 | 78 | 322 | 0.9 | 7.0 | 0.00 | 0.00 | 0.00 | 66 | 1006.0 |
| 20260505003219 | 78 | 222 | 1.7 | 7.0 | 0.00 | 0.00 | 0.00 | 66 | 1005.9 |
| 20260505002711 | 78 | 285 | 1.7 | 7.8 | 0.00 | 0.00 | 0.00 | 66 | 1005.9 |
| 20260505002521 | 78 | 267 | 1.7 | 7.8 | 0.00 | 0.00 | 0.00 | 65 | 1006.0 |
| 20260505002013 | 79 | 165 | 1.7 | 7.0 | 0.00 | 0.00 | 0.00 | 65 | 1006.1 |
| 20260505001154 | 79 | 226 | 1.7 | 7.0 | 0.00 | 0.00 | 0.00 | 65 | 1006.0 |
| 20260505001009 | 79 | 321 | 1.7 | 5.2 | 0.00 | 0.00 | 0.00 | 65 | 1005.9 |
| 20260505000141 | 79 | 12 | 1.7 | 5.2 | 0.00 | 0.00 | 0.00 | 64 | 1005.9 |
| 20260504235635 | 79 | 83 | 0.9 | 5.2 | 0.00 | 0.00 | 0.00 | 64 | 1006.0 |
| 20260504235139 | 79 | 309 | 0.9 | 10.4 | 0.00 | 0.00 | 0.00 | 64 | 1006.1 |
| 20260504234627 | 79 | 319 | 1.7 | 10.4 | 0.00 | 0.00 | 0.00 | 64 | 1006.2 |
| 20260504234121 | 79 | 269 | 2.6 | 8.7 | 0.00 | 0.00 | 0.00 | 63 | 1006.1 |
| 20260504233612 | 79 | 266 | 1.7 | 6.1 | 0.00 | 0.00 | 0.00 | 63 | 1006.2 |
| 20260504233106 | 80 | 306 | 0.9 | 5.2 | 0.00 | 0.00 | 0.00 | 63 | 1006.2 |
| 20260504232601 | 80 | 108 | 0.9 | 4.3 | 0.00 | 0.00 | 0.00 | 63 | 1006.3 |
| 20260504232054 | 80 | 262 | 1.7 | 5.2 | 0.00 | 0.00 | 0.00 | 63 | 1006.2 |
| 20260504231549 | 80 | 257 | 1.7 | 5.2 | 0.00 | 0.00 | 0.00 | 62 | 1006.3 |
| 20260504231042 | 80 | 228 | 1.7 | 7.8 | 0.00 | 0.00 | 0.00 | 61 | 1006.4 |
| 20260504230535 | 81 | 249 | 2.6 | 7.8 | 0.00 | 0.00 | 0.00 | 61 | 1006.4 |
| 20260504230030 | 81 | 259 | 2.6 | 9.6 | 0.00 | 0.00 | 0.00 | 61 | 1006.4 |
| 20260504225524 | 81 | 306 | 1.7 | 9.6 | 0.00 | 0.00 | 0.00 | 61 | 1006.5 |
| 20260504225018 | 81 | 229 | 1.7 | 7.8 | 0.00 | 0.00 | 0.00 | 62 | 1006.6 |